User: anonymous   Login
Location: Boiro
(42.6475°N, 8.8834°W)
Time: 04:47:23
(UTC+02:00)
Language:

MOZHAYETS 4 - Orbit

View from above orbital plane
View from above orbital plane
View from above satellite
View from above satellite

Ground track
Ground track

The orbit data is extracted from the following two-line orbital elements,

1 27939U 03042A   22176.78520054  .00000625  00000-0  11924-3 0  9991
2 27939  98.1924 317.5036 0013112 175.9228 184.2099 14.67370321  2269
Epoch (UTC): 25 June 2022 18:50:41
Eccentricity: 0.0013112
inclination: 98.1924°
perigee height: 660 km
apogee height: 679 km
right ascension of ascending node: 317.5036°
argument of perigee: 175.9228°
revolutions per day: 14.67370321
mean anomaly at epoch: 184.2099°
orbit number at epoch: 226

The dashed part of the orbit path shows where the satellite is in the earth's shadow,  

DLR